Location: Moscow
(55.7500°N, 37.5830°E)
Time: 09:41:16
(UTC+03:00)

Vanguard 1 Rocket - Pass Details

Date: 30 November 2021
Orbit: 651 x 4224 km, 34.3° (Epoch: 23 January)

Event Time Altitude Azimuth Distance (km) Brightness Sun altitude
Exits shadow 06:44:52 - 250° (WSW) 5,961 11.1 -14.2°
Reaches altitude 10° 06:47:50 10° 244° (WSW) 5,519 11.0 -13.8°
Maximum altitude 07:03:50 38° 185° (S) 4,878 11.2 -11.7°
Drops below altitude 10° 07:25:44 10° 129° (SE) 7,412 13.5 -8.8°
Sets 07:32:04 0° 122° (ESE) 8,323 14.7 -8.0°
